Voltar ao catálogo

FENGYUN 1C DEB

AtivoSSO
NORAD 31064·DEBRIS·🇨🇳 China

Lançado May 10, 1999 de Taiyuan Satellite Launch Center

Loading…

Próximas Passagens (próximas 24 horas)

TLE

AtualizadoSource: Space-Track

Época: Sep 14, 2026, 05:09 UTC

1 31064U 99025BFJ 26257.21504258  .00000374  00000-0  14210-3 0  9993
2 31064  98.6025 238.1812 0238795 281.0289  89.7725 14.22544669 11671

Acompanhe FENGYUN 1C DEB em tempo real com AllMySat

Download on the App Store